{"data":{"norad_id":61576,"epoch":"2026-09-21T16:15:18.350208Z","epoch_age_seconds":90409,"freshness":"FRESH","line1":"1 61576U 24187C   26264.67729572 -.00000381  00000+0  17127-5 0  9997","line2":"2 61576  53.1589  50.0145 0000795  87.5826 272.5283 15.69707062111533","mean_motion":15.69707062,"eccentricity":7.95e-5,"inclination_deg":53.1589,"raan_deg":50.0145,"arg_perigee_deg":87.5826,"mean_anomaly_deg":272.5283,"bstar":1.7127e-6,"rev_number":11153,"period_min":91.736861919017,"perigee_km":359.19949702774,"apogee_km":360.27081870084,"semimajor_km":6737.8721578643,"source":"CELESTRAK","updated_at":"2026-09-22T09:00:49.390346Z"}}